Lid_Strength_Index
2 5 7 7 11 14 14 12 9 9 10 7 5 7 8 7 9 12 2 1 1 1 -0 -0 -1 -1 -1 -1 -1 -1 -1 -1 -1 -1 -1 -1 -1 -1 -1 -1 -1 -1 -1 -1 -1 -1 -1 -1 -1
3 5 8 11 14 16 15 11 10 9 8 5 5 6 6 8 4 4 3 1 0 0 0 -0 -1 -1 -1 -1 -1 -1 -1 -1 -1 -1 -1 -1 -1 -1 -1 -1 -1 -1 -1 -1 -1 -1 -1 -1 -1
6 5 11 13 15 16 14 11 10 8 7 8 6 5 5 6 4 3 2 1 0 0 -0 -0 -1 -1 -1 -1 -1 -1 -1 -1 -1 -1 -1 -1 -1 -1 -1 -1 -1 -1 -1 -1 -1 -1 -1 -1 -1
8 10 11 14 16 13 12 10 10 9 8 7 5 7 4 3 4 2 1 1 1 0 -0 -0 -0 -0 -1 -1 -1 -1 -1 -1 -1 -1 -1 -1 -1 -1 -1 -1 -1 -1 -1 -1 -1 -1 -1 -1 -1
10 12 15 16 15 12 11 9 9 11 9 8 6 7 6 4 2 1 1 1 1 1 -0 -0 -0 -0 -1 -1 -1 -1 -1 -1 -1 -1 -1 -1 -1 -1 -1 -1 -1 -1 -1 -1 -1 -1 -1 -1 -1
13 12 16 17 14 12 11 10 10 11 10 9 6 8 7 7 8 3 1 2 1 1 0 -0 -0 -0 -0 -1 -1 -1 -1 -1 -1 -1 -1 -1 -1 -1 -1 -1 -1 -1 -1 -1 -1 -1 -1 -1 -2
14 15 16 16 15 12 11 11 11 12 11 10 10 10 10 8 7 8 1 1 1 0 0 -0 -0 -0 -1 -0 -0 -1 -1 -1 -1 -1 -1 -1 -1 -1 -1 -1 -1 -1 -1 -1 -1 -1 -1 -1 -1
12 14 16 15 15 15 12 11 13 11 11 9 9 11 11 8 7 7 5 2 2 1 1 1 0 -0 -0 -0 -1 -1 -1 -1 -0 -1 -1 -1 -1 -1 -1 -0 -1 -1 -1 -1 -1 -1 -1 -1 -1
11 14 14 13 13 14 12 12 10 10 11 10 9 8 8 6 7 7 8 3 2 1 2 1 1 0 0 -0 -0 -1 -1 -1 -1 -1 -1 -0 -0 -0 -0 -1 -1 -1 -1 -1 -1 -1 -1 -1 -1
13 15 13 11 12 13 12 12 11 11 11 11 10 8 7 6 8 7 7 7 3 2 1 2 1 1 1 -0 -0 -0 -0 -0 -0 -0 -0 -0 0 -0 -0 -1 -1 -1 -1 -1 -1 -1 -1 -1 0
13 14 12 10 11 10 11 11 10 10 11 10 10 9 8 8 8 8 8 8 8 3 2 2 2 1 1 1 -0 -0 -0 -0 -0 -0 -0 -0 0 0 0 0 -0 0 -1 -0 -0 -0 0 0 0
14 11 10 9 10 11 11 10 11 11 10 9 9 9 9 9 10 9 9 8 8 3 2 2 3 2 2 1 1 0 0 0 0 -0 -0 -0 0 1 0 -0 0 -0 0 0 0 0 0 0 0
14 12 10 11 12 12 10 12 12 12 9 9 9 8 9 10 9 9 9 8 8 6 3 3 3 3 3 1 1 1 0 0 0 -0 -0 -0 0 1 0 1 0 -0 0 0 0 1 1 0 1
12 12 11 11 11 13 12 11 11 9 8 8 8 8 9 8 8 8 8 8 7 6 5 2 2 2 1 2 2 2 2 1 1 0 -0 -0 0 0 1 1 1 0 -0 -0 0 1 1 1 1
11 13 12 11 11 11 11 12 11 9 8 9 8 8 7 8 7 8 7 8 8 6 4 7 4 2 1 1 1 2 2 2 2 2 1 0 0 1 1 1 1 0 0 0 0 1 2 2 2
12 13 16 12 11 11 11 15 10 9 10 9 8 8 8 8 7 7 8 7 6 6 6 4 3 3 2 1 1 1 1 1 1 2 1 1 0 0 2 1 1 0 0 0 0 1 2 2 2
14 17 16 13 12 11 12 14 10 9 9 10 9 9 8 8 8 7 7 6 6 6 5 3 4 2 1 1 1 2 1 0 0 0 0 1 0 0 1 2 0 1 0 0 1 2 2 2 2
16 16 15 14 11 12 13 13 11 9 9 9 9 9 8 8 8 7 7 6 6 6 5 4 3 4 3 2 2 2 3 3 1 1 0 -0 0 -0 0 0 0 0 1 1 1 2 3 3 2
13 14 15 13 10 11 12 11 10 8 9 9 9 8 8 7 6 6 5 5 2 3 3 3 3 3 3 3 3 4 4 3 2 1 1 0 -0 -0 0 0 0 0 1 1 1 2 3 3 4
12 14 13 11 9 10 11 11 9 9 8 9 8 8 8 8 7 6 4 3 3 3 3 2 2 2 2 2 3 3 3 3 3 2 1 1 0 0 0 1 1 1 1 1 2 2 4 3 3
12 13 12 12 10 10 11 12 11 9 8 7 8 7 7 7 6 5 4 4 4 4 3 2 2 2 1 1 1 2 2 2 3 3 3 1 0 0 0 0 0 1 1 1 1 1 2 3 3
13 10 10 10 12 15 11 17 12 11 9 8 8 8 7 7 6 6 5 5 5 4 3 3 2 2 2 1 2 3 3 4 3 3 2 2 0 0 0 1 1 1 1 2 1 2 3 2 3
11 9 10 10 13 14 13 16 13 10 11 10 8 8 7 7 7 7 6 5 4 3 3 2 3 2 2 2 2 2 3 2 2 2 2 2 1 0 2 2 1 1 1 1 1 2 1 1 2
8 10 11 12 14 17 14 14 15 13 11 10 8 7 7 7 7 6 7 6 6 5 4 3 3 3 2 2 2 3 3 3 3 3 2 2 2 1 1 2 2 1 1 1 1 1 1 2 2
10 14 18 18 18 18 13 14 13 10 9 8 8 8 7 7 7 7 7 6 6 6 6 5 5 5 4 3 2 3 3 2 3 3 2 2 2 2 3 2 2 2 1 1 1 1 1 1 2
13 13 17 21 21 18 12 16 13 9 7 7 7 8 7 7 8 7 7 7 7 7 6 6 6 6 5 4 4 3 2 3 2 2 2 2 2 2 2 5 5 5 1 1 1 1 1 1 2
12 14 11 15 15 18 15 13 10 9 9 8 8 7 7 8 8 7 8 8 7 7 7 6 6 6 6 5 5 5 5 4 3 2 3 1 1 1 1 2 4 4 2 1 2 2 2 1 2
11 9 15 15 21 22 17 15 15 11 11 9 9 9 7 7 7 7 7 7 7 7 7 7 6 7 6 6 5 5 5 5 4 4 2 2 1 1 1 1 1 2 1 1 2 2 2 2 2
12 13 13 13 15 20 21 18 11 11 9 9 8 7 7 7 8 8 8 7 7 7 7 7 6 6 6 6 6 6 5 5 4 4 3 1 1 1 1 1 1 1 1 2 3 3 3 2 3
9 11 12 18 17 17 17 16 8 8 8 9 8 7 8 8 8 8 8 7 7 7 7 7 7 7 6 6 6 6 5 5 4 4 3 3 1 1 1 1 1 1 2 4 4 3 4 5 6